Flag for U.S.A. Weather past 2 weeks in Kodiak, Alaska, U.S.A.

Now
58 °F

Scattered clouds.


Feels Like: 57 °F
Forecast: 49 / 55 °F
Wind: 6 mph from Northeast

Location: Kodiak Weather Reporting Station

Current Time: Sep 17, 2014 at 1:49:57 PM

Latest Report: Sep 17, 2014 at 12:53 PM


Visibility: 10 mi

Pressure: 29.14 "Hg

Humidity: 65%

Dew point: 46 °F

Location of KodiakLocation

Historic Weather in Kodiak — Graph

°F

Kodiak temperature yesterday

Maximum temperature yesterday: 54 °F (at 12:53 PM)
Minimum temperature yesterday: 41 °F (at 5:53 AM)
Average temperature yesterday: 49 °F

Past Weeks' High & Low Weather Summary

 TemperatureHumidityPressure
High66 °F (Sep 8, 5:53 PM)100% (Sep 11, 8:59 PM)30.08 "Hg (Sep 11, 8:59 PM)
Low41 °F (Sep 16, 5:53 AM)56% (Sep 2, 3:53 PM)29.15 "Hg (Sep 17, 11:53 AM)
Average55 °F87%29.78 "Hg
* Reported Sep 2 11:53 AM — Sep 17 11:53 AM, Kodiak, Weather by CustomWeather, © 2014

Note: Actual official high and low records may vary slightly from our data, if they occured in-between our weather recording intervals... More about our weather records

Advertising

Kodiak weather history for previous 24 hours

 ConditionsComfort  
Time TempWeatherWind HumidityBarometerVisibility
11:53 AM
Sep 17
56 °FScattered clouds.5 mph70%29.15 "Hg10 mi
10:53 AM55 °FScattered clouds.5 mph80%29.15 "Hg10 mi
9:53 AM51 °FScattered clouds.3 mph86%29.16 "Hg10 mi
8:53 AM50 °FScattered clouds.3 mph86%29.16 "Hg10 mi
7:53 AM47 °FPassing clouds.3 mph93%29.17 "Hg10 mi
6:53 AM48 °FPartly cloudy.3 mph93%29.18 "Hg10 mi
5:53 AM50 °FPassing clouds.No wind96%29.19 "Hg10 mi
4:53 AM53 °FPassing clouds.3 mph89%29.20 "Hg10 mi
3:53 AM52 °FPartly cloudy.5 mph93%29.21 "Hg10 mi
2:53 AM52 °FFog.13 mph97%29.22 "Hg5 mi
1:53 AM52 °FRain. Fog.21 mph93%29.28 "Hg3 mi
12:53 AM52 °FHeavy rain. Fog.21 mph97%29.33 "Hg2 mi
11:53 PM
Sep 16
52 °FLight rain. Fog.22 mph93%29.36 "Hg3 mi
10:53 PM52 °FLight rain. Fog.24 mph93%29.40 "Hg3 mi
9:53 PM51 °FRain. Fog.23 mph96%29.44 "Hg3 mi
9:00 PM51 °FLight rain. Fog.20 mph96%29.47 "Hg4 mi
7:53 PM52 °FLight rain. Fog.22 mph93%29.49 "Hg3 mi
6:53 PM52 °FBroken clouds.13 mph86%29.52 "Hg10 mi
5:53 PM52 °FRain. Fog.15 mph89%29.55 "Hg3 mi
4:53 PM53 °FLight rain. Mostly cloudy.14 mph86%29.59 "Hg7 mi
3:53 PM53 °FLight rain. Mostly cloudy.12 mph86%29.63 "Hg9 mi
2:53 PM53 °FLight rain. Fog.13 mph86%29.66 "Hg5 mi
1:53 PM53 °FLight rain. Fog.10 mph86%29.67 "Hg5 mi
Weather by CustomWeather, © 2014

See weather overviewHow to use our weather pages